Location: Kenockee Observatory
(43.0173°N, 82.7297°W)
Time: 09:57:52
(UTC-05:00)

Daily predictions for brighter satellites

Satellite Brightness Start Highest point End
(mag) Time Altitude Azimuth Time Altitude Azimuth Time Altitude Azimuth
Cosmos 1908 3.2 17:53:21 10° N 17:57:15 84° E 18:01:09 10° S
Cosmos 1844 3.8 17:53:01 10° NNW 17:58:44 61° ENE 18:04:27 10° SE
Cosmos 841 Rocket 3.6 17:55:49 10° S 18:01:02 68° ESE 18:06:18 10° NNE
Cosmos 44 Rocket 3.8 17:56:20 10° S 18:01:13 46° ESE 18:06:03 10° NE
Cosmos 1674 2.7 17:58:27 10° S 18:02:16 84° E 18:06:08 10° N
CENTAUR R/B 2.7 17:57:06 10° SW 18:03:10 83° NW 18:10:08 10° NE
IDEFIX/ARIANE 42P 2.9 18:01:35 10° S 18:06:47 73° WSW 18:12:02 10° NNW
Lacrosse 5 3.5 18:04:27 10° WNW 18:08:36 25° NNW 18:12:46 10° NNE
SL-14 R/B 4.2 18:05:18 10° SSE 18:08:39 27° E 18:12:03 10° NNE
COSMOS 2428 3.0 18:06:26 10° SSW 18:12:08 75° WNW 18:17:53 10° NNE
Cosmos 2237 Rocket 2.7 18:07:52 10° S 18:13:01 38° ESE 18:18:12 10° NE
Cosmos 1484 Rocket 2.9 18:09:48 10° SSE 18:13:37 54° ENE 18:17:31 10° N
Cosmos 1726 2.6 18:11:48 10° N 18:15:23 40° ENE 18:18:57 10° SSE
Cosmos 1743 Rocket 3.6 18:11:11 10° S 18:15:38 83° E 18:20:08 10° N
CZ-2C R/B 3.2 18:11:01 10° S 18:15:57 58° W 18:20:46 10° NNW
SL-16 R/B 3.6 18:15:00 10° SE 18:18:42 18° E 18:21:40 12° ENE
Cosmos 1328 Rocket 3.7 18:14:26 10° N 18:18:54 81° W 18:23:20 10° S
Cosmos 2151 3.4 18:15:09 10° SSE 18:19:03 38° E 18:22:58 10° NNE
Cosmos 1300 3.0 18:15:27 10° N 18:19:09 43° ENE 18:22:48 10° SSE
MSX 4.0 18:16:20 10° SSE 18:22:03 81° WSW 18:27:49 10° NNW
Cosmos 2297 4.4 18:21:59 10° N 18:27:02 31° NE 18:32:03 10° ESE
Cosmos 1515 Rocket 3.6 18:22:32 10° N 18:27:02 88° W 18:31:29 10° S
Aureole 2 Rocket 3.6 18:28:01 10° SSE 18:31:12 28° E 18:33:24 17° NE
SKYMED 2 3.6 18:27:09 10° NNE 18:31:28 63° ESE 18:35:45 10° S
Cosmos 1151 Rocket 2.9 18:28:02 10° N 18:32:18 71° E 18:36:35 10° SSE
Cosmos 836 Rocket 4.5 18:27:53 10° SSW 18:33:06 83° ESE 18:38:24 10° NNE
Cosmos 1805 Rocket 4.5 18:31:11 10° SSE 18:34:57 27° E 18:38:22 12° NE
BREEZE M DEB (TANK) 1.5 18:33:12 10° WNW 18:36:08 51° NNE 18:37:00 28° E
Lacrosse 5 rocket 1.5 18:34:00 10° NW 18:37:39 45° NE 18:40:18 18° ESE
Abrixas 3.8 18:36:20 10° SSW 18:38:51 26° SE 18:39:46 22° ESE
Cosmos 1844 Rocket 3.8 18:36:30 10° NW 18:41:55 47° WSW 18:47:16 10° S
Cosmos 1500 Rocket 3.8 18:37:57 10° SSW 18:42:16 71° W 18:46:38 10° N
Meteor 1-28 Rocket 3.2 18:40:33 10° NNE 18:44:14 58° E 18:47:53 10° S
CZ-4 R/B 4.1 18:41:31 10° SSW 18:44:33 22° W 18:47:38 10° NW
Cosmos 1634 Rocket 4.2 18:39:05 10° N 18:45:17 76° W 18:51:25 10° S
Meteor 1-11 4.2 18:40:50 10° S 18:46:24 63° E 18:52:06 10° NNE
Cosmos 372 Rocket 3.8 18:48:58 10° NNW 18:54:05 82° ENE 18:59:11 10° SSE
Cosmos 1328 4.4 18:51:37 10° SSW 18:55:29 57° W 18:59:24 10° N
Sich 1 3.8 18:52:55 10° SSE 18:56:47 30° E 18:57:08 30° E
NOSS 0 Rocket 4.0 18:52:40 10° SSW 18:58:54 81° WNW 19:05:10 10° NNE
Cosmos 1980 3.8 18:54:52 10° SSW 19:00:33 82° WNW 19:06:12 10° NNE
Cosmos 1633 Rocket 4.0 18:57:29 10° SSE 19:00:37 28° ESE 19:00:37 28° ESE
Lacrosse 4 Rocket 3.5 18:59:35 10° N 19:00:22 13° NNE 19:00:22 13° NNE
Cosmos 2084 4.0 19:01:25 10° SW 19:05:11 47° NW 19:07:19 22° NNE
Cosmos 540 Rocket 3.6 19:00:30 10° SSW 19:05:40 76° WNW 19:10:52 10° NNE
FENGYUN 3A 3.9 19:01:33 10° SE 19:06:34 42° ENE 19:11:37 10° N
OTV 4 2.8 19:06:31 10° WSW 19:08:33 17° SSW 19:09:45 14° SSE
SJ-6B 2.8 19:04:43 10° SSE 19:08:46 73° ENE 19:12:54 10° N
Meteor 2-10 4.0 19:03:42 10° NNW 19:08:47 80° W 19:13:59 10° S
USA 215 3.2 19:02:47 10° SE 19:09:21 88° SW 19:15:57 10° NW
ALOS 2.5 19:05:07 10° SE 19:09:31 43° ENE 19:13:56 10° N
Cosmos 44 3.5 19:05:05 10° SW 19:10:21 75° NW 19:13:37 22° NNE
Cosmos 2333 Rocket 2.9 19:09:50 10° SW 19:15:21 54° WNW 19:20:54 10° NNE
METEOR-M 4.1 19:11:15 10° SSE 19:16:36 86° WSW 19:22:00 10° NNW
Resurs 01 Rocket 1.8 19:17:34 47° E 19:17:48 48° ENE 19:22:06 10° N
ATLAS 5 CENTAUR R/B 4.3 19:16:01 10° N 19:18:01 12° NNE 19:18:03 12° NNE
Cosmos 1461 3.2 19:14:31 10° S 19:18:18 44° SE 19:18:18 44° SE
COSMO-SKYMED 1 3.9 19:15:21 10° N 19:19:25 39° WNW 19:23:27 10° SW
Cosmos 1703 3.1 19:16:34 10° S 19:20:28 85° E 19:21:52 38° NNE
Cosmos 1707 Rocket 3.3 19:18:02 10° N 19:22:23 78° E 19:26:43 10° SSE
Cosmos 2058 3.8 19:20:49 10° SSW 19:24:47 48° W 19:28:47 10° N
Cosmos 2219 Rocket 3.5 19:19:39 10° WSW 19:24:50 36° WNW 19:30:01 10° N
SL-19 R/B 4.2 19:23:55 10° SSE 19:29:52 82° ENE 19:35:31 10° NNW
FREGAT/IRIS 4.3 19:27:27 10° S 19:32:17 20° NNW 19:33:26 10° NNW
Cosmos 2278 Rocket 3.4 19:25:42 10° NW 19:31:02 43° WSW 19:36:20 10° S
Cosmos 1666 Rocket 3.3 19:29:18 10° S 19:33:37 81° E 19:34:05 69° NNE
Cosmos 1626 2.4 19:30:52 10° S 19:34:03 63° SSW 19:34:03 63° SSW
Spot 2 Rocket 3.3 19:32:58 10° SSE 19:38:00 77° ENE 19:43:03 10° N
Cosmos 1340 Rocket 3.9 19:34:44 10° SSW 19:38:30 42° WNW 19:40:58 19° NNW
Cosmos 1538 Rocket 3.9 19:42:35 10° SSW 19:47:52 89° ESE 19:48:47 63° NNE
BREEZE-M DEB (TANK) 4.5 19:45:59 10° W 19:46:31 15° WNW 19:46:31 15° WNW
Cosmos 1356 Rocket 3.8 19:44:07 10° SSW 19:47:33 57° WSW 19:47:33 57° WSW
USA 229 DEB 3.9 19:43:15 10° S 19:49:29 48° SE 19:49:29 48° SE
USA 229 3.9 19:43:23 10° S 19:49:32 48° SE 19:49:32 48° SE
Lacrosse 5 3.9 19:49:58 10° NW 19:52:57 16° N 19:52:57 16° N
CENTAUR R/B 4.4 19:49:51 10° W 19:55:00 24° NNW 19:59:12 15° NNE
Cosmos 2237 Rocket 3.7 19:52:03 10° WSW 19:57:06 33° NW 20:01:05 15° N
Nadezhda 4 Rocket 4.2 19:51:22 10° SSW 19:57:36 72° W 20:03:55 10° N
Cosmos 2369 Rocket 4.2 19:57:04 10° N 19:58:25 16° N 19:58:25 16° N
Aureole 1 Rocket 3.8 19:56:57 10° SSW 20:01:10 62° S 20:01:10 62° S
SL-16 R/B 2.4 19:56:36 10° SW 20:02:13 66° WNW 20:03:37 49° N
BREEZE-M DEB (TANK) 4.5 19:52:35 10° W 20:08:22 53° N 20:08:56 51° NNE
Cosmos 1092 Rocket 4.1 20:09:37 10° SSW 20:15:56 72° W 20:20:03 23° N
Lacrosse 5 rocket 3.5 20:13:34 10° WNW 20:16:06 22° WSW 20:16:06 22° WSW
Resurs 01 Rocket 4.3 20:55:07 16° W 20:55:07 16° W 20:57:26 10° NW
